{"data":{"norad_id":39057,"intl_designator":"2013-001A","name":"COSMOS 2482 (RODNIK-S 4)","alt_names":[],"object_type":"PAYLOAD","status":"ACTIVE","operator":null,"country":"CIS","launch_date":"2013-01-15","launch_site_code":"PLMSC","launch_vehicle":null,"mission":null,"orbit_class":"UNKNOWN","rcs_meters":1.7487,"size_class":null,"mass_kg":null,"dimensions":null,"purposes":[],"wikipedia_slug":null,"has_3d_model":false,"image_url":null,"decayed_at":null,"tle_current":{"epoch":"2026-05-25T04:19:57.056736Z","epoch_age_seconds":55557,"freshness":"FRESH","line1":"1 39057U 13001A   26145.18052149  .00000123  00000+0  81263-3 0  9995","line2":"2 39057  82.4988 234.6679 0028646  76.5767 283.8503 12.42995988605856","mean_motion":12.42995988,"eccentricity":0.0028646,"inclination_deg":82.4988,"raan_deg":234.6679,"arg_perigee_deg":76.5767,"mean_anomaly_deg":283.8503,"bstar":0.00081263,"rev_number":60585,"period_min":115.84912694022,"perigee_km":1471.3780195671,"apogee_km":1516.4786563012,"semimajor_km":7872.0653379342,"source":"CELESTRAK","updated_at":"2026-05-25T13:37:55.334164Z"}}}